[[{"header":{"parameterUnit":"m.s-1","parameterCategory":1,"la1":30.2991,"la2":30.254,"lo1":-89.0895,"lo2":-89.0444,"dy":0.0017,"dx":0.0017,"nx":28,"ny":28,"refTime":"2025-12-05T09:00:00:Z","depth":0,"parameterNumber":2,"parameterNumberName":"U-component_of_WINDS"},"data":[0,0,0,0,0,0,0,0,0,0,0,0,0,0,0,0,0,0,0,0,0,0,0,0,0,0,0,0,0,0,0,0,0,0,0,0,0,0,0,0,0,0,0,0,0,0,0,0,0,0,0,0,0,0,0,0,0,0,-0.719,-0.7191,0,-0.7274,-0.7275,-0.7276,-0.7255,-0.7254,-0.7252,-0.725,-0.7342,-0.7346,-0.735,0,0,0,0,0,0,0,0,0,0,0,0,0,-0.7016,-0.702,-0.719,-0.7191,-0.7192,-0.7274,-0.7275,-0.7276,-0.7255,-0.7253,-0.7251,-0.725,-0.7341,-0.7345,-0.735,0,0,0,0,0,0,0,0,0,0,0,0,0,-0.7095,-0.7021,-0.719,-0.7191,-0.7192,-0.7273,-0.7275,-0.7276,-0.7256,-0.7253,-0.7251,-0.7249,-0.7339,-0.7345,-0.7351,-0.7437,0,0,-0.7369,-0.7372,0,0,0,0,0,0,0,0,-0.7091,-0.7102,-0.719,-0.7191,-0.7193,-0.7251,-0.7247,-0.733,-0.7257,-0.7232,-0.725,-0.7247,-0.7314,-0.7322,-0.7343,-0.7441,-0.7445,-0.7369,-0.7373,-0.7376,-0.7377,0,0,0,0,0,0,0,-0.7085,-0.7098,-0.7223,-0.7191,-0.7193,-0.719,-0.7198,-0.7263,-0.7286,-0.7234,-0.7233,-0.7242,-0.7314,-0.7338,-0.7345,-0.7447,-0.7369,-0.7375,-0.7378,-0.7381,-0.762,-0.7622,0,0,0,0,0,0,-0.7078,-0.7094,-0.7221,-0.7226,-0.7134,-0.7195,-0.7204,-0.7235,-0.7285,-0.729,-0.7245,-0.7241,-0.7329,-0.7338,-0.7349,-0.7453,-0.7376,-0.7381,-0.7385,-0.7617,-0.762,-0.7623,0,0,0,0,0,0,-0.7075,-0.709,-0.7217,-0.7159,-0.7175,-0.72,-0.7235,-0.7238,-0.7261,-0.7293,-0.7298,-0.7264,-0.7327,-0.734,-0.7415,-0.7456,-0.7384,-0.7389,-0.7614,-0.7618,-0.7622,-0.7662,0,0,0,0,0,0,-0.707,-0.7089,-0.7121,-0.716,-0.7178,-0.7281,-0.7238,-0.7242,-0.7271,-0.7267,-0.7312,-0.7318,-0.7326,-0.7406,-0.7421,-0.7463,-0.7394,-0.761,-0.7615,-0.762,-0.7657,-0.7667,-0.7676,0,0,0,0,0,-0.7064,-0.713,-0.7122,-0.7138,-0.7219,-0.7283,-0.7294,-0.7301,-0.7274,-0.7307,-0.7328,-0.7316,-0.7449,-0.7414,-0.743,-0.7475,-0.7607,-0.7614,-0.762,-0.7653,-0.7665,-0.7676,0,0,0,0,0,0,-0.7097,-0.7135,-0.7127,-0.7208,-0.7242,-0.7279,-0.7321,-0.7313,-0.7357,-0.7352,-0.7361,-0.7371,-0.7447,-0.7468,-0.7429,-0.7561,-0.7524,-0.7534,-0.7544,-0.7556,-0.7565,-0.7559,-0.7399,0,0,0,0,0,-0.7113,-0.716,-0.7192,-0.726,-0.7278,-0.7297,-0.7325,-0.7327,-0.7364,-0.7379,-0.7405,-0.7442,-0.7492,-0.7525,-0.7573,-0.766,-0.767,-0.7699,-0.7708,-0.7715,-0.7724,-0.7772,-0.7785,-0.7644,-0.7644,-0.7643,0,0,-0.7148,-0.7175,-0.7205,-0.7268,-0.7294,-0.7345,-0.7309,-0.7364,-0.7402,-0.7388,-0.7459,-0.748,-0.7522,-0.7603,-0.764,-0.7623,-0.7765,-0.7723,-0.7729,-0.7734,-0.7779,-0.7793,-0.7805,-0.7648,-0.7647,-0.7646,0,0,-0.7238,-0.7262,-0.7322,-0.7349,-0.7389,-0.7401,-0.7415,-0.7453,-0.7466,-0.7537,-0.7527,-0.7573,-0.7659,-0.769,-0.7716,-0.7816,-0.7808,-0.7832,-0.788,-0.7927,-0.7938,-0.7948,-0.7984,-0.7997,-0.784,-0.784,-0.784,0,-0.7277,-0.735,-0.7354,-0.7409,-0.7438,-0.7425,-0.7486,-0.7512,-0.7567,-0.7588,-0.7567,-0.7674,-0.7702,-0.779,-0.7814,-0.7836,-0.7853,-0.7827,-0.7935,-0.7946,-0.7955,-0.799,-0.8003,-0.7843,-0.7843,-0.7842,-0.7842,0,-0.7397,-0.7448,-0.7492,-0.7542,-0.7575,-0.7634,-0.7647,-0.7681,-0.768,-0.7694,-0.7767,-0.78,-0.7854,-0.7875,-0.7875,-0.7963,-0.7951,-0.7933,-0.7897,-0.7971,-0.8004,-0.8017,-0.7847,-0.7846,-0.7845,-0.7844,0,0,-0.7511,-0.7561,-0.7577,-0.76,-0.7643,-0.7684,-0.7741,-0.7792,-0.7821,-0.7859,-0.7908,-0.7981,-0.7964,-0.7994,-0.7998,-0.8039,-0.8116,-0.8016,-0.8017,-0.8034,-0.8215,-0.8229,-0.8244,-0.811,-0.8112,-0.8114,-0.8212,0,-0.7604,-0.7704,-0.7708,-0.78,-0.7848,-0.7836,-0.7886,-0.7919,-0.7934,-0.7978,-0.7995,-0.8046,-0.802,-0.8038,-0.8078,-0.8098,-0.8153,-0.8091,-0.8157,-0.816,-0.8148,-0.8261,-0.8276,-0.8367,-0.8225,-0.8227,-0.8228,0,-0.7727,-0.7767,-0.7862,-0.7898,-0.7918,-0.7963,-0.801,-0.8052,-0.8089,-0.8097,-0.813,-0.8128,-0.8188,-0.8149,-0.8233,-0.8191,-0.8218,-0.8232,-0.8236,-0.8243,-0.8199,-0.8272,-0.8396,-0.841,-0.8248,-0.8247,-0.8245,0,-0.7801,-0.7879,-0.7946,-0.7966,-0.8008,-0.804,-0.806,-0.8094,-0.8125,-0.8166,-0.8186,-0.8234,-0.8261,-0.8299,-0.8311,-0.8281,-0.8395,-0.8356,-0.8404,-0.8404,-0.843,-0.8428,-0.856,-0.8446,-0.8446,-0.8445,-0.8445,0,-0.7906,-0.7965,-0.7979,-0.8021,-0.8087,-0.8092,-0.8158,-0.8176,-0.8206,-0.8252,-0.8245,-0.8289,-0.83,-0.8346,-0.8355,-0.8424,-0.8436,-0.8445,-0.8447,-0.8446,-0.8445,-0.8465,-0.8459,-0.8449,-0.8448,-0.8447,-0.8447,0,-0.8,-0.8012,-0.8084,-0.8118,-0.8128,-0.8176,-0.8206,-0.8246,-0.8259,-0.8317,-0.8332,-0.8353,-0.8407,-0.8421,-0.8486,-0.8492,-0.8573,-0.8569,-0.856,-0.856,-0.8607,-0.8603,-0.8758,-0.8778,-0.865,-0.8651,-0.8652,0,-0.8067,-0.8112,-0.815,-0.8179,-0.8199,-0.8247,-0.8277,-0.8283,-0.8315,-0.836,-0.8396,-0.8448,-0.849,-0.8577,-0.8599,-0.8649,-0.8646,-0.8697,-0.8654,-0.8651,-0.8648,-0.8645,-0.865,-0.8705,-0.8707,-0.8708,-0.8709,0,-0.8183,-0.8186,-0.8229,-0.8274,-0.8309,-0.8346,-0.838,-0.8405,-0.8417,-0.8453,-0.8507,-0.8539,-0.8604,-0.8657,-0.8706,-0.8728,-0.8721,-0.8722,-0.8736,-0.8736,-0.8729,-0.8734,-0.8583,-0.8719,-0.8718,-0.8717,-0.8716,-0.8716,-0.8266,-0.8306,-0.8338,-0.8386,-0.8412,-0.8445,-0.8484,-0.8501,-0.8546,-0.8598,-0.8599,-0.8658,-0.8694,-0.8759,-0.8784,-0.8831,-0.8816,-0.8836,-0.8841,-0.8846,-0.885,-0.872,-0.884,-0.884,-0.8839,-0.8839,-0.8839,0,-0.8383,-0.8403,-0.8447,-0.8494,-0.8532,-0.8519,-0.8557,-0.859,-0.8641,-0.8674,-0.8715,-0.8777,-0.8828,-0.8853,-0.8904,-0.8936,-0.8934,-0.8949,-0.8948,-0.8953,-0.8861,-0.8844,-0.895,-0.895,-0.895,-0.895,-0.895,-0.895,-0.8448,-0.8514,-0.8521,-0.86,-0.862,-0.8676,-0.8699,-0.8729,-0.8755,-0.8824,-0.8865,-0.8881,-0.8911,-0.8964,-0.901,-0.9016,-0.9035,-0.9053,-0.9057,-0.8971,-0.896,-0.8949,-0.8933,-0.9056,-0.9057,-0.9146,-0.9147,-0.9147]},{"header":{"parameterUnit":"m.s-1","parameterCategory":1,"la1":30.2991,"la2":30.254,"lo1":-89.0895,"lo2":-89.0444,"dy":0.0017,"dx":0.0017,"nx":28,"ny":28,"refTime":"2025-12-05T09:00:00:Z","depth":0,"parameterNumber":3,"parameterNumberName":"V-component_of_WINDS"},"data":[0,0,0,0,0,0,0,0,0,0,0,0,0,0,0,0,0,0,0,0,0,0,0,0,0,0,0,0,0,0,0,0,0,0,0,0,0,0,0,0,0,0,0,0,0,0,0,0,0,0,0,0,0,0,0,0,0,0,-3.6216,-3.6216,0,-3.6182,-3.6181,-3.6181,-3.6074,-3.6072,-3.607,-3.6067,-3.6034,-3.6035,-3.6037,0,0,0,0,0,0,0,0,0,0,0,0,0,-3.6192,-3.6193,-3.6216,-3.6216,-3.6215,-3.6182,-3.6181,-3.6181,-3.6075,-3.6072,-3.6069,-3.6066,-3.6034,-3.6035,-3.6037,0,0,0,0,0,0,0,0,0,0,0,0,0,-3.6185,-3.6194,-3.6216,-3.6158,-3.6153,-3.6182,-3.6181,-3.618,-3.6075,-3.6072,-3.6068,-3.6065,-3.6033,-3.6035,-3.6037,-3.612,0,0,-3.6043,-3.6044,0,0,0,0,0,0,0,0,-3.6185,-3.6186,-3.6167,-3.6162,-3.6156,-3.6128,-3.616,-3.616,-3.6076,-3.6105,-3.6067,-3.6063,-3.6068,-3.6067,-3.6069,-3.6118,-3.6117,-3.6043,-3.6044,-3.6045,-3.6046,0,0,0,0,0,0,0,-3.6186,-3.6187,-3.6202,-3.6167,-3.616,-3.6135,-3.613,-3.616,-3.6107,-3.6102,-3.6094,-3.6091,-3.6065,-3.6067,-3.6067,-3.6116,-3.6043,-3.6045,-3.6046,-3.6047,-3.6232,-3.6236,0,0,0,0,0,0,-3.6195,-3.6188,-3.6203,-3.6201,-3.6162,-3.6138,-3.6132,-3.6141,-3.6106,-3.6097,-3.6095,-3.6087,-3.6065,-3.6065,-3.6065,-3.616,-3.6045,-3.6047,-3.6048,-3.6228,-3.6233,-3.6237,0,0,0,0,0,0,-3.6194,-3.6197,-3.6205,-3.6192,-3.6191,-3.6142,-3.6153,-3.6142,-3.6144,-3.6101,-3.6091,-3.6106,-3.6063,-3.6063,-3.6107,-3.6157,-3.6048,-3.605,-3.6224,-3.623,-3.6235,-3.6349,0,0,0,0,0,0,-3.6194,-3.6198,-3.6228,-3.6194,-3.6193,-3.6246,-3.6156,-3.6144,-3.6148,-3.6137,-3.6109,-3.6101,-3.606,-3.6105,-3.6109,-3.6158,-3.6051,-3.6219,-3.6227,-3.6233,-3.6341,-3.6358,-3.6373,0,0,0,0,0,-3.6194,-3.6262,-3.623,-3.6232,-3.6229,-3.625,-3.6249,-3.6199,-3.6152,-3.6182,-3.6155,-3.6102,-3.6151,-3.611,-3.6114,-3.6164,-3.6216,-3.6225,-3.6233,-3.6334,-3.6355,-3.6373,0,0,0,0,0,0,-3.6303,-3.6256,-3.622,-3.6279,-3.6269,-3.6231,-3.6268,-3.6223,-3.6227,-3.6217,-3.6156,-3.6151,-3.6203,-3.6188,-3.6143,-3.6243,-3.6175,-3.6185,-3.625,-3.627,-3.6286,-3.6288,-3.6053,0,0,0,0,0,-3.6334,-3.6354,-3.6312,-3.6368,-3.6365,-3.6318,-3.6325,-3.6288,-3.6275,-3.627,-3.6245,-3.6236,-3.6249,-3.6259,-3.6269,-3.6339,-3.6331,-3.6376,-3.6392,-3.6405,-3.6414,-3.645,-3.6469,-3.6265,-3.6265,-3.6265,0,0,-3.6399,-3.6375,-3.6391,-3.639,-3.6377,-3.64,-3.6315,-3.6342,-3.6358,-3.6274,-3.6314,-3.6296,-3.6281,-3.6339,-3.6363,-3.6328,-3.6469,-3.6416,-3.6427,-3.6428,-3.6461,-3.648,-3.6497,-3.6271,-3.6269,-3.6269,0,0,-3.6526,-3.6511,-3.6556,-3.6546,-3.6528,-3.6496,-3.6508,-3.6477,-3.6462,-3.6501,-3.6438,-3.6457,-3.6481,-3.6473,-3.6472,-3.6599,-3.6551,-3.6604,-3.6688,-3.6724,-3.674,-3.6754,-3.6799,-3.6816,-3.6613,-3.6614,-3.6614,0,-3.6608,-3.6639,-3.6585,-3.6616,-3.6617,-3.6543,-3.6588,-3.6581,-3.6568,-3.6571,-3.6532,-3.6561,-3.6546,-3.66,-3.6631,-3.6633,-3.6644,-3.6606,-3.6742,-3.6755,-3.6768,-3.681,-3.6827,-3.662,-3.662,-3.6619,-3.6618,0,-3.674,-3.6763,-3.6801,-3.679,-3.6796,-3.6834,-3.6787,-3.6799,-3.6763,-3.6736,-3.6777,-3.6756,-3.676,-3.6771,-3.6735,-3.6821,-3.68,-3.6753,-3.6683,-3.6795,-3.6833,-3.6849,-3.663,-3.6627,-3.6625,-3.6624,0,0,-3.6935,-3.6894,-3.6909,-3.6903,-3.6879,-3.6895,-3.6931,-3.6935,-3.6947,-3.6941,-3.6969,-3.6992,-3.6948,-3.6948,-3.6911,-3.6942,-3.7044,-3.6891,-3.689,-3.6919,-3.7137,-3.7172,-3.7192,-3.7012,-3.7015,-3.7018,-3.7138,0,-3.7055,-3.7112,-3.7065,-3.7132,-3.7152,-3.7082,-3.7113,-3.7102,-3.7079,-3.7093,-3.7067,-3.7083,-3.7025,-3.7024,-3.7052,-3.7026,-3.7087,-3.7016,-3.7038,-3.704,-3.7043,-3.7212,-3.7248,-3.7363,-3.7153,-3.7155,-3.7157,0,-3.7203,-3.7203,-3.7271,-3.7243,-3.725,-3.7279,-3.7278,-3.7293,-3.728,-3.726,-3.7261,-3.7215,-3.7249,-3.7182,-3.7228,-3.7181,-3.7188,-3.7176,-3.718,-3.7179,-3.7104,-3.7215,-3.7398,-3.7416,-3.718,-3.7179,-3.7177,0,-3.7337,-3.7355,-3.7397,-3.7395,-3.7364,-3.7385,-3.7373,-3.7357,-3.7362,-3.7363,-3.7366,-3.7371,-3.7374,-3.7379,-3.7337,-3.7292,-3.7388,-3.7318,-3.7373,-3.7374,-3.7395,-3.7394,-3.7582,-3.7402,-3.7402,-3.7401,-3.7401,0,-3.7475,-3.7519,-3.7457,-3.7483,-3.7531,-3.7478,-3.7527,-3.7508,-3.7494,-3.7516,-3.7457,-3.7479,-3.7423,-3.7439,-3.7407,-3.745,-3.7452,-3.7437,-3.7428,-3.7442,-3.7443,-3.7444,-3.7435,-3.7406,-3.7405,-3.7404,-3.7403,0,-3.7632,-3.7592,-3.7634,-3.7601,-3.7594,-3.7631,-3.7603,-3.7627,-3.76,-3.7629,-3.7632,-3.759,-3.7607,-3.7565,-3.7576,-3.7554,-3.7616,-3.7594,-3.762,-3.7613,-3.767,-3.7665,-3.7864,-3.7887,-3.7694,-3.7696,-3.7697,0,-3.7722,-3.7754,-3.7725,-3.7736,-3.7727,-3.7744,-3.775,-3.77,-3.7708,-3.7696,-3.7721,-3.7733,-3.7739,-3.7769,-3.774,-3.7748,-3.7725,-3.7795,-3.7726,-3.7739,-3.7726,-3.7724,-3.7727,-3.7808,-3.7811,-3.7813,-3.7814,0,-3.7886,-3.7865,-3.7875,-3.7879,-3.7887,-3.7887,-3.7883,-3.7895,-3.7842,-3.7854,-3.787,-3.7875,-3.7886,-3.7899,-3.7901,-3.7889,-3.7843,-3.7836,-3.7849,-3.7863,-3.7877,-3.787,-3.7657,-3.7832,-3.783,-3.7829,-3.7828,-3.7827,-3.8012,-3.8037,-3.8021,-3.8034,-3.8026,-3.8024,-3.8045,-3.8021,-3.8033,-3.8037,-3.8008,-3.803,-3.8017,-3.8015,-3.8009,-3.8026,-3.7994,-3.8014,-3.8018,-3.8024,-3.8033,-3.7875,-3.8026,-3.8026,-3.8025,-3.8025,-3.8024,0,-3.8172,-3.8158,-3.8171,-3.8168,-3.8179,-3.8135,-3.8129,-3.8141,-3.8161,-3.8153,-3.8161,-3.818,-3.8192,-3.8165,-3.8173,-3.8192,-3.8171,-3.8196,-3.8193,-3.8191,-3.8061,-3.8048,-3.8212,-3.8212,-3.8212,-3.8212,-3.8212,-3.8212,-3.8256,-3.8297,-3.8275,-3.8312,-3.8298,-3.8319,-3.832,-3.8318,-3.8311,-3.8335,-3.8345,-3.8327,-3.8311,-3.8318,-3.8327,-3.8319,-3.8324,-3.8356,-3.8341,-3.8219,-3.82,-3.8183,-3.8171,-3.8358,-3.8358,-3.8469,-3.847,-3.8471]}]]